Torna al catalogo

STARLINK-5815

AttivoComunicazioniVLEO
NORAD 55789·PAYLOAD·🇺🇸 United States

Lanciato Mar 3, 2023 da Vandenberg Space Force Base

Loading…

Prossimi Passaggi (prossime 24 ore)

TLE

AggiornatoSource: CelesTrak SupGP

Epoca: Sep 15, 2026, 01:37 UTC

1 55789C 23028BA  26258.06784722 -.00021776  00000+0 -18245-2 0  2582
2 55789  70.0000  86.9187 0002311 270.1215 116.1893 14.98350522    16

Traccia STARLINK-5815 in tempo reale con AllMySat

Download on the App Store